Weather History for Tucumcari, NM

Change the Weather History Date:

Sunday, February 10, 2013

  Actual Average Record
Temperature  
Mean Temperature 44 °F -  
Max Temperature 55 °F 57 °F 79 °F (1916)
Min Temperature 32 °F 25 °F -10 °F (1933)
Degree Days  
Heating Degree Days 21    
Moisture  
Dew Point 10 °F    
Average Humidity 29    
Maximum Humidity 43    
Minimum Humidity 13    
Precipitation  
Precipitation 0.00 in - - ()
Sea Level Pressure  
Sea Level Pressure 29.78 in    
Wind  
Wind Speed 23 mph (West)    
Max Wind Speed 34 mph    
Max Gust Speed 44 mph    
Visibility 10 miles    
Events      
Averages and records for this station are not official NWS values.
T = Trace of Precipitation, MM = Missing Value Source: NWS Daily Summary

Daily Weather History Graph

Daily Weather History Graph

Search for Another Location

Airport:

Trip Planner

Search our weather history database for the weather conditions in past years. The results will help you decide how hot, cold, wet, or windy it might be!

Date:

Astronomy

Feb. 10, 2013 Rise Set
Actual Time 6:45 AM MST 5:32 PM MST
Civil Twilight 6:19 AM MST 5:58 PM MST
Nautical Twilight 5:49 AM MST 6:28 PM MST
Astronomical Twilight 5:19 AM MST 6:58 PM MST
Moon 6:39 AM MST (2/10) 6:21 PM MST (2/10)
Length of Visible Light 11h 39m
Length of Day
10h 46m
New Moon, 0% of the Moon is Illuminated
Feb 10
New Moon
Feb 17
First Quarter
Feb 25
Full
Mar 4
Last Quarter
Mar 11
New

Hourly Weather History & Observations

Time (MST) Temp. Windchill Dew Point Humidity Pressure Visibility Wind Dir Wind Speed Gust Speed Precip Events Conditions
12:53 AM 39.0 °F 26.8 °F 10.9 °F 32% 29.60 in 10.0 mi WSW 32.2 mph 41.4 mph N/A   Clear
1:53 AM 39.0 °F 26.4 °F 12.0 °F 33% 29.60 in 6.0 mi West 34.5 mph 43.7 mph N/A   Haze
2:53 AM 37.9 °F 25.9 °F 12.9 °F 36% 29.64 in 10.0 mi West 28.8 mph 36.8 mph N/A   Clear
3:53 AM 37.0 °F 23.7 °F 14.0 °F 39% 29.65 in 10.0 mi West 34.5 mph 40.3 mph N/A   Clear
4:53 AM 36.0 °F 25.6 °F 15.1 °F 43% 29.69 in 10.0 mi West 18.4 mph - N/A   Clear
5:53 AM 36.0 °F 25.3 °F 14.0 °F 41% 29.74 in 10.0 mi West 19.6 mph - N/A   Clear
6:53 AM 35.1 °F 25.2 °F 14.0 °F 42% 29.76 in 10.0 mi West 16.1 mph - N/A   Clear
7:53 AM 37.9 °F 27.3 °F 15.1 °F 39% 29.77 in 10.0 mi West 21.9 mph - N/A   Clear
8:53 AM 43.0 °F 34.2 °F 14.0 °F 31% 29.78 in 10.0 mi West 20.7 mph - N/A   Clear
9:53 AM 46.9 °F - 12.9 °F 25% 29.78 in 10.0 mi West 24.2 mph 31.1 mph N/A   Clear
10:53 AM 50.0 °F - 10.0 °F 20% 29.77 in 10.0 mi West 21.9 mph 27.6 mph N/A   Clear
11:53 AM 53.1 °F - 9.0 °F 17% 29.76 in 10.0 mi West 20.7 mph 27.6 mph N/A   Clear
12:53 PM 54.0 °F - 6.1 °F 15% 29.73 in 10.0 mi West 18.4 mph 26.5 mph N/A   Clear
1:53 PM 55.0 °F - 3.9 °F 13% 29.73 in 10.0 mi WSW 19.6 mph 28.8 mph N/A   Clear
2:53 PM 55.0 °F - 3.9 °F 13% 29.74 in 10.0 mi West 16.1 mph 25.3 mph N/A   Clear
3:53 PM 54.0 °F - 3.9 °F 13% 29.76 in 10.0 mi West 19.6 mph 27.6 mph N/A   Clear
4:53 PM 52.0 °F - 3.9 °F 14% 29.80 in 10.0 mi WSW 20.7 mph - N/A   Clear
5:53 PM 46.0 °F 39.9 °F 6.1 °F 20% 29.84 in 10.0 mi WSW 13.8 mph - N/A   Clear
6:53 PM 42.1 °F 35.7 °F 7.0 °F 24% 29.88 in 10.0 mi WSW 11.5 mph - N/A   Clear
7:53 PM 37.9 °F 30.9 °F 7.0 °F 28% 29.93 in 10.0 mi NE 10.4 mph - N/A   Clear
8:53 PM 37.0 °F 32.4 °F 10.9 °F 34% 29.94 in 10.0 mi East 5.8 mph - N/A   Clear
9:53 PM 34.0 °F 27.2 °F 10.0 °F 37% 29.96 in 10.0 mi East 8.1 mph - N/A   Clear
10:53 PM 33.1 °F 27.7 °F 10.0 °F 38% 29.96 in 10.0 mi ENE 5.8 mph - N/A   Clear
11:53 PM 32.0 °F 26.4 °F 10.0 °F 40% 29.96 in 10.0 mi East 5.8 mph - N/A   Clear